This demonstration page uses our WeatherBlox Daily Observations layout. Learn more.

Left ArrowRight Arrow

34.02893, -84.19858

Hourly Observations for February 7, 2017

Temp ( °F °C ) Dew Point ( °F °C ) Humidity (%) Winds ( mph kmh ) Pressure ( in mb ) Visibility ( mi km ) Precip ( " mm )
12:53 am 00:53 Clear with Mist and Fog 50 10 48 8.9 93 93 NNE 3 6 30.05 1018 4 6 0.00 0.00
1:40 am 01:40 Clear with Mist and Fog 48 9 46 8 94 94 Calm 30.06 1018 2 3 0.00 0.00
1:51 am 01:51 Clear with Mist and Fog 48 9 46 8 94 94 Calm 30.06 1018 4 6 0.00 0.00
1:53 am 01:53 Clear with Mist and Fog 48 8.9 46 7.8 93 93 Calm 30.05 1018 3 5 0.00 0.00
2:03 am 02:03 Clear with Mist and Fog 48 9 46 8 94 94 N 3 6 30.06 1018 3 4 0.00 0.00
2:11 am 02:11 Clear with Mist and Fog 48 8.9 47 8.3 96 96 NNE 3 6 30.06 1018 3 5 0.00 0.00
2:24 am 02:24 Clear with Mist and Fog 48 9 46 8 94 94 Calm 30.03 1017 2 3 0.00 0.00
2:31 am 02:31 Clear with Mist and Fog 48 8.9 46 7.8 93 93 Calm 30.03 1017 1 2 0.00 0.00
2:44 am 02:44 Clear with Mist and Fog 46 8 46 8 100 100 Calm 30.09 1019 1 1 0.00 0.00
2:53 am 02:53 Clear with Mist and Fog 48 8.9 47 8.3 96 96 VRB 3 6 30.05 1018 1 2 0.00 0.00
3:04 am 03:04 Clear with Mist and Fog 48 9 46 8 94 94 Calm 30.03 1017 3 5 0.00 0.00
3:16 am 03:16 Clear with Mist and Fog 48 9 46 8 94 94 Calm 30.03 1017 2 3 0.00 0.00
3:27 am 03:27 Clear with Fog 48 9 46 8 94 94 Calm 30.03 1017 1 1 0.00 0.00
3:39 am 03:39 Mostly Cloudy with Fog 47 8.3 46 7.8 97 97 Calm 30.06 1018 1 1 0.00 0.00
3:43 am 03:43 Clear with Mist and Fog 46 7.8 45 7.2 96 96 Calm 30.06 1018 1 1 0.00 0.00
3:51 am 03:51 Mostly Cloudy with Mist and Fog 46 8 45 7 93 93 Calm 30.06 1018 1 2 0.00 0.00
3:53 am 03:53 Mostly Cloudy with Mist and Fog 47 8.3 46 7.8 97 97 Calm 30.03 1017 1 2 0.00 0.00
4:08 am 04:08 Clear with Mist and Fog 47 8.3 46 7.8 97 97 Calm 30.06 1018 1 2 0.00 0.00
4:53 am 04:53 Clear with Mist and Fog 47 8.3 45 7.2 93 93 Calm 30.01 1016 1 1 0.00 0.00
5:11 am 05:11 Partly Cloudy with Mist and Fog 47 8.3 45 7.2 93 93 Calm 30.00 1016 2 3 0.00 0.00
5:29 am 05:29 Partly Cloudy with Mist and Fog 47 8.3 46 7.8 97 97 Calm 30.00 1016 3 5 0.00 0.00
5:36 am 05:36 Mostly Cloudy with Mist and Fog 48 9 46 8 94 94 Calm 30.00 1016 3 4 0.00 0.00
5:46 am 05:46 Mostly Cloudy with Mist and Fog 48 9 46 8 94 94 Calm 30.00 1016 3 5 0.00 0.00
5:53 am 05:53 Cloudy with Mist and Fog 48 8.9 46 7.8 93 93 Calm 29.99 1016 3 5 0.00 0.00
6:53 am 06:53 Cloudy with Light Rain 54 12.2 50 10 87 87 SSE 5 7 29.98 1015 8 13 0.00 0.03
7:53 am 07:53 Cloudy 54 12.2 49 9.4 83 83 S 3 6 29.98 1015 9 14 0.01 0.25
8:53 am 08:53 Mostly Cloudy 56 13.3 49 9.4 77 77 SE 3 6 29.99 1016 10 16 0.00 0.00
9:37 am 09:37 Cloudy 58 14.4 50 10 75 75 SSW 6 9 30.00 1016 10 16 0.00 0.00
9:53 am 09:53 Cloudy 60 15.6 50 10 70 70 S 6 9 29.99 1016 10 16 0.00 0.00
10:53 am 10:53 Cloudy 62 16.7 53 11.7 73 73 SW 13 20 30.00 1016 10 16 0.00 0.00
11:43 am 11:43 Mostly Cloudy 63 17.2 52 11.1 68 68 S 14 22 29.94 1014 10 16 0.00 0.00
11:53 am 11:53 Mostly Cloudy 64 17.8 52 11.1 65 65 S 12 19 29.95 1014 10 16 0.00 0.00
12:15 pm 12:15 Mostly Cloudy 65 18.3 53 11.7 66 66 SSW 17 28 29.91 1013 10 16 0.00 0.00
12:53 pm 12:53 Mostly Cloudy 66 18.9 54 12.2 65 65 SSW 8 13 29.91 1013 10 16 0.00 0.00
1:01 pm 13:01 Mostly Cloudy 66 18.9 54 12.2 65 65 SW 13 20 29.88 1012 10 16 0.00 0.00
1:19 pm 13:19 Mostly Cloudy 66 19 54 12 64 64 SSW 9 15 29.88 1012 10 16 0.00 0.00
1:53 pm 13:53 Cloudy 66 18.9 55 12.8 68 68 SSW 13 20 29.88 1012 10 16 0.00 0.00
2:53 pm 14:53 Cloudy with Light Rain 63 17.2 57 13.9 81 81 WSW 12 19 29.87 1012 4 6 0.02 0.51
3:00 pm 15:00 Cloudy with Light Rain 62 16.7 57 13.9 84 84 SW 9 15 29.85 1011 6 10 0.00 0.03
3:13 pm 15:13 Cloudy with Light Rain 62 16.7 57 13.9 84 84 WSW 7 11 29.83 1010 2 3 0.03 0.76
3:16 pm 15:16 Cloudy with Heavy Rain 61 16 57 14 88 88 W 8 13 29.83 1010 2 2 0.00 0.00
3:29 pm 15:29 Cloudy with Light Rain 60 15.6 56 13.3 86 86 SW 9 15 29.83 1010 4 6 0.10 2.54
3:53 pm 15:53 Cloudy with Light Rain 61 16.1 57 13.9 87 87 SW 6 9 29.84 1011 5 8 0.11 2.79
4:45 pm 16:45 Cloudy with Nearby Thunderstorms 60 15.6 57 13.9 90 90 W 8 13 29.80 1009 6 10 0.03 0.76
4:53 pm 16:53 Cloudy with Nearby Thunderstorms 60 15.6 57 13.9 90 90 W 6 9 29.84 1011 5 8 0.04 1.02
5:00 pm 17:00 Cloudy with Light Rain 61 16 57 14 88 88 WSW 7 11 29.80 1009 4 6 0.00 0.00
5:08 pm 17:08 Cloudy with Nearby Thunderstorms 61 16 57 14 88 88 SW 7 11 29.83 1010 2 3 0.00 0.00
5:15 pm 17:15 Cloudy with Nearby Thunderstorms 60 15.6 57 13.9 90 90 SW 9 15 29.83 1010 4 6 0.06 1.52
5:29 pm 17:29 Cloudy with Heavy Rain 60 15.6 56 13.3 86 86 SW 9 15 29.83 1010 4 6 0.13 3.30
5:53 pm 17:53 Cloudy with Rain 59 15 56 13.3 90 90 SW 10 17 29.85 1011 4 6 0.24 6.10
6:08 pm 18:08 Cloudy with Heavy Rain 57 14 55 13 94 94 S 7 11 29.83 1010 3 4 0.00 0.00
6:48 pm 18:48 Cloudy with Light Rain 57 14 55 13 94 94 SSW 5 7 29.77 1008 6 10 0.00 0.00
6:53 pm 18:53 Cloudy with Light Rain 57 13.9 55 12.8 93 93 S 6 9 29.80 1009 7 11 0.21 5.33
7:53 pm 19:53 Cloudy with Mist and Fog 56 13.3 54 12.2 93 93 Calm 29.78 1008 6 10 0.01 0.25
8:05 pm 20:05 Partly Cloudy with Mist and Fog 56 13.3 54 12.2 93 93 Calm 29.77 1008 2 2 0.00 0.00
8:53 pm 20:53 Mostly Cloudy with Mist and Fog 56 13.3 54 12.2 93 93 SSE 5 7 29.78 1009 2 2 0.00 0.00
9:00 pm 21:00 Mostly Cloudy with Mist and Fog 55 13 54 12 94 94 SSE 5 7 29.80 1009 5 8 0.00 0.00
9:53 pm 21:53 Mostly Cloudy with Mist and Fog 55 12.8 54 12.2 96 96 SSE 3 6 29.79 1009 5 8 0.00 0.00
10:00 pm 22:00 Partly Cloudy with Mist and Fog 55 13 54 12 94 94 S 5 7 29.80 1009 3 5 0.00 0.00
10:12 pm 22:12 Mostly Cloudy with Mist and Fog 56 13.3 54 12.2 93 93 Calm 29.80 1009 3 5 0.00 0.00
10:45 pm 22:45 Mostly Cloudy with Mist and Fog 55 12.8 54 12.2 96 96 S 3 6 29.80 1009 2 2 0.00 0.00
10:53 pm 22:53 Mostly Cloudy with Mist and Fog 54 12.2 53 11.7 97 97 S 3 6 29.78 1008 1 2 0.00 0.00
11:11 pm 23:11 Mostly Cloudy with Mist and Fog 54 12.2 53 11.7 97 97 Calm 29.80 1009 2 2 0.00 0.00
11:16 pm 23:16 Mostly Cloudy with Fog 54 12 54 12 100 100 Calm 29.80 1009 1 1 0.00 0.00
11:28 pm 23:28 Cloudy with Mist and Fog 54 12 54 12 100 100 S 3 6 29.80 1009 1 2 0.00 0.00
11:50 pm 23:50 Mostly Cloudy with Fog 54 12 54 12 100 100 Calm 29.80 1009 1 1 0.00 0.00
11:53 pm 23:53 Mostly Cloudy with Fog 54 12.2 52 11.1 93 93 Calm 29.80 1009 0 0 0.00 0.00

Powered by AerisWeather